Wind_Speed
30 30 30 30 30 29 28 29 29 28 25 23 21 19 20 20 20 21 22 22 23 23 23 22 22 22 24 24 24 22 22 26 31 35 37 33 30 30 32 36 37 37 40 44 47 49 48 47 47 46 44 41 39 37 37 36 35 34 35 35 34 33 33 32 31 31 30 28 29 29 28 28 26 25 25 24 23 22 22 22 21 21 22 22 23
29 30 30 31 31 30 30 30 30 30 28 27 25 22 20 19 19 20 21 22 23 23 22 21 21 21 22 23 24 23 23 25 28 33 39 38 31 29 32 37 37 34 36 40 44 47 49 50 50 49 48 46 42 39 37 37 37 36 36 37 37 36 36 35 33 33 32 31 30 30 29 30 29 27 26 26 25 24 24 23 23 23 24 24 24
26 28 28 29 30 29 30 31 31 31 30 29 28 26 22 20 20 20 21 22 22 23 22 21 20 20 21 22 24 24 24 25 25 28 34 39 37 34 32 34 34 34 35 38 42 44 47 51 52 51 50 49 47 43 41 40 40 40 38 38 39 39 39 38 35 33 35 35 34 33 32 32 32 29 27 27 28 28 27 26 26 26 26 26 25
24 25 26 27 28 27 27 28 30 30 30 30 30 29 26 23 22 21 21 21 22 23 23 21 20 20 20 21 23 25 25 25 25 25 29 34 38 39 34 29 28 32 34 37 42 43 44 49 52 51 51 50 49 47 44 43 43 42 40 39 40 41 41 39 36 35 36 37 35 34 33 33 31 29 29 29 29 30 29 29 28 27 27 26 26
22 22 23 25 26 25 24 25 26 28 29 30 30 30 29 26 24 22 21 21 22 23 23 22 21 20 20 21 22 24 25 24 24 25 26 30 36 40 40 34 29 29 30 35 41 42 43 47 51 51 50 49 48 47 46 45 45 44 43 42 42 42 41 39 38 37 37 37 35 34 33 32 30 30 30 30 31 31 31 31 30 29 28 28 28
19 19 20 22 23 23 23 22 23 25 27 29 29 29 29 28 26 24 23 22 22 22 23 22 22 21 21 21 21 23 24 24 23 23 24 28 32 35 39 40 37 31 28 31 38 43 44 46 49 50 50 49 48 46 45 45 45 45 44 43 42 42 41 39 38 38 38 37 37 37 36 34 31 32 32 32 32 33 33 33 33 32 31 30 30
16 15 16 18 19 20 20 20 21 22 24 26 28 28 29 28 27 25 24 23 23 23 23 23 22 22 21 21 21 22 23 24 23 22 22 25 30 30 31 34 38 36 30 29 35 42 44 46 47 48 49 49 49 47 46 45 44 42 40 40 40 42 43 42 41 40 40 40 39 40 42 40 36 35 35 34 33 34 35 35 35 35 34 33 32
13 12 12 13 13 15 16 17 18 20 21 23 25 26 27 27 26 25 25 25 24 23 23 24 23 23 22 21 21 22 23 24 23 22 21 22 27 30 27 27 31 33 31 29 33 39 43 45 46 46 47 49 50 49 48 48 46 44 42 41 41 42 44 45 45 44 43 42 41 41 43 43 40 38 38 36 35 35 36 36 37 37 36 34 34
11 10 9 9 9 10 12 14 16 17 19 20 22 23 24 25 25 25 25 25 24 23 23 24 24 23 22 22 21 21 23 24 23 22 21 21 25 28 26 23 25 29 30 29 31 36 41 43 45 45 47 49 50 50 51 51 50 49 48 46 44 44 45 46 46 46 45 44 44 43 43 42 41 39 39 39 38 37 37 37 37 37 35 33 33
11 10 9 8 8 9 10 12 13 15 16 18 19 20 22 23 23 23 23 24 24 23 23 23 24 24 23 22 22 22 22 23 24 23 21 21 24 27 27 25 24 26 28 28 29 34 38 41 43 44 44 46 48 49 51 52 52 51 50 48 47 47 45 44 46 47 47 47 47 46 44 42 42 41 41 41 41 39 38 37 37 37 36 32 31
13 12 11 9 8 9 10 11 12 13 15 16 17 18 19 20 20 20 20 21 22 22 23 23 23 23 23 22 22 22 22 23 24 23 21 20 23 27 30 30 27 26 27 27 28 31 35 39 42 43 43 44 45 47 49 51 52 52 52 50 49 46 43 42 43 46 47 48 49 49 46 44 43 43 43 43 43 41 39 38 38 38 37 34 32
14 14 13 12 10 10 9 10 11 12 13 14 14 15 16 17 17 18 18 19 20 21 21 22 22 23 23 22 22 22 22 23 23 24 23 21 22 25 31 33 32 29 28 27 27 29 32 36 40 42 43 43 44 44 45 47 50 52 52 50 48 44 41 41 41 43 45 46 46 47 46 44 44 44 44 44 43 42 40 39 38 37 37 37 37
15 15 14 14 13 12 11 11 11 12 12 13 13 14 15 15 16 17 17 18 19 20 20 21 21 22 22 22 22 22 23 23 23 24 24 22 22 23 28 33 34 33 32 29 27 27 30 33 37 39 41 43 43 43 42 44 47 50 50 49 47 45 42 41 41 41 42 42 43 44 44 43 43 43 43 42 42 42 42 40 39 38 38 38 38
15 15 15 14 14 13 13 13 13 14 14 15 15 16 16 17 18 18 19 18 19 19 20 20 20 21 22 22 22 22 22 23 23 24 25 24 22 22 24 29 34 36 35 33 30 28 27 29 33 37 40 42 43 42 42 43 47 49 49 47 47 46 43 40 38 37 38 41 43 44 45 45 43 41 41 40 41 42 43 42 40 40 40 40 40
15 15 15 15 14 13 13 13 13 15 16 16 17 17 18 19 19 19 20 20 20 19 20 20 20 20 21 22 22 22 22 23 23 24 25 25 24 21 21 25 30 34 36 36 34 32 29 27 29 33 38 42 44 44 44 45 47 50 51 50 50 49 47 44 40 37 37 39 43 45 46 46 44 42 42 42 41 42 42 42 42 43 43 42 41
15 15 15 15 14 13 12 11 11 13 14 16 17 18 18 19 19 19 19 19 19 19 19 19 20 20 21 22 22 22 22 22 23 24 25 25 24 21 20 21 25 29 34 36 36 34 32 29 28 30 35 40 43 45 46 47 49 52 54 54 54 53 51 49 46 43 40 39 41 44 45 45 45 45 46 46 46 45 44 44 44 44 44 43 41
15 16 15 14 14 13 12 11 10 10 11 12 13 15 16 16 17 17 17 16 17 17 17 18 18 19 20 21 22 22 22 22 22 23 25 25 23 20 19 19 20 23 28 33 35 35 34 33 31 30 32 36 40 44 46 48 50 52 55 56 57 57 55 52 50 47 44 41 41 43 45 45 45 46 46 47 48 47 47 47 46 45 45 43 42
15 15 15 14 13 13 12 11 10 9 8 8 8 9 10 11 13 13 12 12 12 13 13 14 16 17 18 19 20 21 20 21 21 22 24 24 21 19 18 18 18 19 22 27 32 34 35 35 34 33 32 32 35 38 43 46 48 50 52 54 56 58 58 54 51 49 48 47 45 45 46 47 47 47 47 47 46 46 47 48 47 46 45 42 41
14 14 13 13 12 12 12 11 9 8 8 6 4 4 4 6 7 7 7 7 8 9 9 10 12 14 16 17 18 19 19 19 20 21 23 22 20 17 16 16 16 17 19 22 27 31 34 35 36 36 34 32 30 31 34 39 42 44 45 47 50 53 56 56 54 52 51 51 50 48 48 50 50 48 48 48 47 47 47 48 47 46 44 42 39
13 12 12 11 11 11 11 11 9 8 8 7 4 2 1 2 3 3 4 5 6 6 6 7 9 11 13 14 14 15 16 17 19 20 21 21 19 16 15 15 15 15 16 18 22 25 29 32 34 35 35 33 30 29 29 31 35 38 40 42 43 45 48 51 53 52 51 51 51 49 49 50 50 50 49 50 50 49 48 48 46 44 43 41 40
12 11 11 9 9 9 10 10 10 9 8 8 6 4 2 1 1 1 2 3 4 4 4 5 6 8 9 9 9 11 13 15 17 19 19 19 17 16 14 14 14 14 15 16 18 21 23 26 28 30 32 32 32 31 30 29 30 31 34 37 39 41 42 44 45 47 47 48 48 49 49 49 51 52 51 50 51 50 48 46 44 42 40 40 40
12 11 10 8 7 7 8 8 9 9 9 8 7 6 5 3 2 1 1 2 2 3 3 4 5 5 5 5 6 9 11 14 15 16 17 16 15 14 13 13 13 13 14 14 15 17 20 21 23 25 27 28 29 30 31 30 29 28 29 31 35 38 41 43 44 44 45 47 48 48 49 49 50 50 49 47 47 47 45 43 41 40 40 40 41
12 11 9 7 6 6 6 7 7 7 8 9 9 7 5 4 3 3 2 2 2 1 2 2 2 2 2 3 5 7 10 12 13 13 14 13 13 12 12 11 11 12 12 13 13 15 17 18 20 22 23 25 26 27 29 29 29 29 27 27 28 31 35 39 42 43 44 45 46 46 45 45 43 42 41 40 40 40 41 40 40 40 41 41 41
12 11 10 7 5 4 4 5 6 6 7 8 9 8 6 5 4 3 3 2 2 2 2 2 1 1 2 3 4 5 7 9 10 11 11 11 11 11 10 10 10 11 11 11 12 13 14 16 18 19 20 22 23 25 26 27 27 27 27 27 26 26 27 29 32 34 35 36 36 36 36 35 35 34 34 35 35 37 38 39 40 41 42 43 43
12 12 11 9 7 5 3 3 4 5 6 7 8 8 8 7 5 4 3 3 2 2 3 2 2 1 1 2 3 4 5 6 7 8 9 9 9 9 9 9 9 10 10 10 11 11 12 13 15 16 17 18 19 21 22 23 24 24 25 25 25 25 25 25 26 26 27 28 28 29 30 31 31 32 33 34 35 36 37 38 40 42 43 44 45
12 12 11 10 9 7 5 4 3 4 5 5 6 6 7 7 7 6 5 4 3 3 3 2 2 1 0 1 2 2 3 3 4 5 5 6 6 6 6 7 8 8 9 10 10 11 11 11 12 13 13 14 15 16 17 18 18 19 20 20 21 22 23 24 24 24 25 26 27 28 29 30 31 32 33 34 35 36 36 38 39 41 42 43 44
12 12 11 11 10 9 7 6 4 3 3 3 4 4 5 5 6 6 6 6 6 5 4 4 3 2 1 1 0 1 1 1 2 2 3 3 4 4 5 5 5 6 7 8 9 10 10 11 11 11 12 12 12 13 14 15 15 16 17 17 18 19 20 21 22 24 24 25 26 27 28 29 30 31 32 32 33 34 34 35 36 37 39 40 41
12 11 11 10 10 10 9 8 6 4 3 3 3 3 3 4 4 5 5 6 6 7 7 7 6 5 5 4 3 2 1 0 1 1 2 2 3 3 4 4 5 5 6 7 8 8 9 10 11 11 11 12 12 13 13 14 14 15 16 17 18 18 19 20 21 22 23 24 25 26 27 27 28 29 30 30 31 32 32 32 33 34 35 36 37
11 11 11 10 10 10 9 8 7 6 4 3 3 3 3 3 3 3 4 4 4 5 6 6 6 6 6 6 5 5 4 3 2 1 0 1 2 2 3 4 4 5 6 7 7 8 9 10 10 11 11 12 12 13 13 14 14 15 16 16 17 18 19 20 20 21 22 23 23 24 25 26 26 27 28 28 29 30 30 31 32 32 33 34 35
11 11 11 10 10 9 9 9 8 7 6 5 4 3 3 3 3 3 2 2 3 3 4 4 4 4 4 4 4 4 4 3 3 2 1 0 0 1 2 2 3 3 4 5 6 7 8 9 9 10 11 11 12 12 13 13 14 15 15 16 17 17 18 19 20 20 21 22 23 23 24 25 25 26 27 27 28 29 29 30 31 31 32 33 34
11 11 11 11 10 9 9 9 8 7 7 6 5 4 3 3 3 3 3 2 2 1 1 1 2 2 2 2 2 2 2 2 2 2 2 2 2 3 3 3 4 4 5 5 6 6 7 8 9 10 10 11 12 12 13 14 15 15 16 17 17 18 19 19 20 21 22 22 23 24 25 25 26 26 27 28 28 29 30 31 31 32 33 34 35
11 11 11 11 10 10 9 8 8 8 7 7 6 5 5 4 4 3 3 2 2 1 1 1 2 2 2 2 2 2 2 3 3 3 4 4 4 5 5 6 6 6 7 7 7 8 9 9 10 11 12 12 13 14 14 15 16 16 17 17 18 19 19 20 21 22 22 23 24 25 26 26 27 28 29 30 31 32 32 33 34 35 36 36 37
11 11 11 11 11 10 9 9 8 8 7 7 7 6 6 5 5 5 4 3 3 2 2 2 2 2 3 3 4 4 4 4 4 4 5 5 5 6 6 7 7 7 8 8 8 9 9 10 10 11 11 12 12 13 13 14 15 15 16 17 18 19 20 21 22 23 24 25 25 26 27 28 29 29 30 31 32 32 33 34 34 35 35 35 35
12 12 12 12 12 11 10 10 9 8 8 7 7 7 6 6 6 6 5 5 4 4 3 3 2 2 2 3 4 4 5 6 6 6 6 7 7 7 7 8 8 8 8 8 8 9 9 9 9 10 10 11 12 12 13 14 15 16 17 18 19 20 21 22 23 23 24 25 25 26 27 27 28 28 28 29 29 30 30 30 31 31 31 32 32
14 13 13 13 13 12 12 11 11 10 9 8 8 7 7 7 7 7 7 6 6 6 6 5 4 4 4 4 4 5 5 5 5 5 6 7 7 8 8 8 8 8 8 8 8 8 9 9 10 10 11 12 13 14 15 16 16 17 18 19 19 20 20 21 22 22 23 23 24 25 25 26 26 27 27 28 28 29 29 29 30 30 31 31 32
15 15 14 14 14 14 13 12 12 12 11 10 9 9 9 8 8 8 8 8 8 8 8 7 7 7 7 7 7 7 7 7 6 6 6 7 8 8 8 8 8 8 9 9 10 10 11 11 12 13 14 15 16 17 17 18 18 19 19 20 20 21 21 22 22 23 24 24 25 26 26 27 28 28 29 30 30 31 32 32 33 33 33 34 35
16 16 16 15 15 15 14 13 13 12 12 12 11 11 10 10 10 10 10 10 10 10 10 10 10 10 10 10 10 10 10 9 8 8 8 9 9 10 11 11 11 11 12 12 13 14 14 15 16 17 18 19 19 19 20 20 21 22 22 23 23 24 24 25 25 26 26 27 28 28 29 30 31 32 32 33 34 34 35 36 36 37 37 38 38
17 16 16 16 16 16 15 15 14 13 13 13 12 12 12 11 11 11 12 12 12 12 12 12 12 12 12 13 13 13 13 13 12 12 12 12 12 12 13 14 14 14 15 16 16 17 18 19 20 20 21 21 22 22 22 23 24 24 25 26 26 27 27 28 28 29 29 30 31 31 32 33 33 34 35 36 37 38 39 39 40 41 41 42 42
18 17 17 17 17 16 16 15 15 14 14 13 13 13 13 13 13 13 14 14 14 14 14 14 14 14 15 15 15 16 16 15 15 15 15 15 16 16 16 17 17 17 17 18 19 20 20 21 22 22 23 23 24 24 25 25 26 27 27 28 28 29 30 30 31 31 32 32 33 34 35 36 36 37 38 39 40 40 41 42 43 43 44 45 45
20 19 18 18 18 18 17 17 16 15 15 15 14 14 15 15 15 15 15 16 16 16 16 17 17 17 17 17 17 18 18 18 17 16 16 17 18 19 19 19 20 20 20 21 22 23 23 23 24 24 25 25 26 27 27 28 29 29 30 30 31 32 32 33 34 34 35 35 36 37 38 38 39 40 41 41 42 42 43 44 45 45 46 46 47
21 21 20 19 19 19 18 18 17 17 16 16 16 16 16 16 17 17 17 17 18 18 18 19 19 19 19 19 19 20 20 20 20 19 19 19 20 20 20 21 22 22 23 23 24 24 25 25 26 26 26 27 27 28 29 30 31 31 32 33 33 34 34 35 36 36 37 38 38 39 40 41 41 42 42 43 44 44 44 45 46 47 47 48 48
22 22 21 20 20 20 19 19 19 18 18 18 17 18 18 18 18 18 18 19 19 19 19 20 20 20 20 20 21 21 22 22 22 22 22 22 22 22 22 23 23 23 24 25 25 26 27 27 28 28 28 29 30 31 32 33 33 34 35 35 36 36 37 37 38 38 39 40 40 41 42 43 43 44 44 45 45 46 46 47 47 48 49 49 50
22 22 22 21 21 20 20 20 20 19 19 19 19 19 19 19 19 19 20 20 21 20 20 21 21 21 21 21 21 21 22 23 24 24 24 24 24 24 24 25 25 25 25 25 26 27 28 29 30 31 32 32 33 34 35 36 37 37 37 38 38 39 39 40 40 41 42 42 43 43 44 44 45 46 46 47 47 48 48 49 49 49 50 50 50
22 22 22 22 21 21 21 21 20 20 20 20 20 20 20 20 20 21 21 21 21 21 20 19 19 19 19 19 20 20 22 23 24 24 25 25 25 25 25 25 26 26 27 28 28 30 31 33 34 35 36 36 36 36 37 38 39 40 40 40 40 41 42 43 43 44 44 44 45 45 45 45 46 47 47 48 49 49 50 50 50 50 50 50 51
22 22 22 22 21 21 20 21 20 20 20 20 20 20 21 21 21 21 20 20 19 19 18 17 17 17 18 18 18 19 20 21 22 23 24 25 25 25 26 26 28 29 30 31 32 33 35 37 38 38 39 39 39 39 40 42 43 43 42 42 42 43 44 45 45 45 45 46 46 46 46 46 47 47 48 48 49 49 50 50 50 50 50 51 51
21 22 22 22 21 21 20 20 20 20 20 20 20 20 20 20 20 19 18 18 17 17 17 17 18 19 19 19 19 19 20 21 23 24 25 25 26 27 28 29 30 32 33 35 36 37 38 40 41 42 43 43 43 43 44 45 46 46 46 46 47 47 47 47 47 46 46 46 47 47 47 48 48 48 48 48 49 49 50 50 51 51 52 53 53
21 22 22 22 21 21 20 20 19 19 19 19 19 19 19 19 18 18 18 18 18 18 18 19 21 21 22 22 21 21 22 24 25 25 26 27 28 29 30 31 33 34 36 37 38 39 40 40 41 42 44 45 46 46 46 47 47 48 48 49 50 50 50 49 49 48 48 48 48 49 49 50 50 50 50 50 50 50 51 52 53 54 55 56 57
20 21 22 22 22 21 21 20 20 19 19 19 19 19 19 19 19 19 19 20 20 21 21 22 23 23 23 23 23 23 24 25 26 27 28 28 29 31 32 33 34 36 37 37 38 38 39 39 39 41 43 44 45 46 47 47 48 48 48 48 49 49 49 49 49 50 50 50 50 51 51 51 52 52 52 53 53 54 55 55 56 57 58 59 60
19 20 21 22 22 21 20 20 20 20 20 20 20 20 20 21 21 21 22 23 23 24 24 24 25 25 25 25 25 25 25 25 26 28 29 30 32 33 34 35 37 38 38 39 40 40 40 40 40 42 43 44 45 46 47 48 48 48 48 48 48 48 48 48 49 49 50 50 51 51 52 53 53 54 55 55 56 57 58 59 60 61 62 62 63
19 19 21 22 21 21 21 21 21 21 21 22 22 22 23 23 24 24 25 25 26 27 27 27 27 28 28 28 28 28 28 28 28 30 31 33 35 36 37 39 40 41 42 43 43 43 43 43 43 43 43 43 44 45 46 46 47 47 47 47 47 48 48 49 49 50 50 51 51 52 53 54 55 56 57 58 59 60 61 62 63 64 65 66 67
22 22 22 22 22 22 22 22 22 23 24 24 25 25 26 27 27 28 27 28 28 29 29 30 30 31 32 32 32 32 32 32 32 33 34 35 36 38 39 41 42 43 44 45 46 46 46 46 46 46 45 44 44 44 45 45 46 46 47 48 49 49 50 51 51 51 52 52 53 54 55 56 57 58 60 61 63 64 65 66 67 68 69 70 70
Wind_Direction
269 265 262 259 256 253 251 249 249 250 250 251 250 250 247 243 240 238 239 238 239 242 243 244 242 240 241 241 239 242 241 240 242 238 232 230 229 230 228 225 225 224 220 220 223 224 223 223 224 224 222 223 225 225 225 229 232 233 233 233 232 233 234 232 231 232 233 234 234 235 237 238 236 235 238 242 244 245 246 247 246 245 246 247 248
273 269 266 263 259 257 254 251 249 249 251 251 251 251 250 247 245 242 240 240 239 241 243 244 243 240 241 243 242 242 244 247 250 247 240 234 233 237 231 223 225 227 222 221 223 224 223 223 224 224 224 224 225 225 226 230 234 235 236 235 234 233 234 233 232 232 232 234 237 240 241 240 238 237 238 241 243 245 246 248 250 252 252 252 252
276 272 267 264 260 256 254 252 250 249 251 252 252 252 251 249 248 245 242 241 240 241 242 243 243 242 241 242 242 242 245 250 253 252 247 242 240 240 229 218 222 227 226 223 223 225 224 224 225 225 225 226 227 228 229 231 234 236 237 237 235 233 234 234 233 233 234 235 238 243 244 239 238 240 243 246 248 248 247 247 250 253 254 254 253
279 274 270 266 261 256 251 250 248 248 249 251 251 252 251 250 249 248 245 243 242 243 244 244 244 244 242 241 241 241 243 249 253 253 247 241 240 237 227 218 219 221 224 225 224 224 224 224 224 225 226 227 229 231 232 233 234 235 238 238 235 233 234 234 232 232 235 236 237 241 241 237 237 241 246 249 252 253 252 251 251 253 256 258 258
284 278 272 266 262 257 251 247 245 244 244 246 248 250 251 250 249 249 248 246 245 244 246 246 246 246 245 243 243 243 244 248 253 255 248 239 237 237 233 233 230 222 222 226 225 224 223 223 224 225 227 229 230 232 232 232 233 234 237 238 236 235 235 234 233 232 235 238 239 238 237 236 238 242 245 247 251 255 256 256 255 254 256 259 261
290 283 274 267 261 256 251 247 244 241 240 241 243 246 249 250 249 249 249 247 246 246 246 247 247 247 247 247 247 247 247 250 255 259 254 241 237 238 238 241 241 236 230 228 225 223 223 223 224 224 226 227 228 230 232 231 232 234 236 237 236 235 235 236 235 234 233 237 239 238 236 237 241 245 245 245 247 251 254 256 257 257 256 256 258
299 291 280 270 262 255 251 249 245 242 240 239 238 240 243 247 247 247 247 246 245 245 246 247 248 248 248 249 249 249 248 251 255 261 260 247 237 235 237 239 242 242 239 232 224 220 221 223 225 226 227 227 228 230 232 231 230 230 231 234 236 236 236 237 238 237 235 236 238 239 239 240 244 247 247 245 244 247 249 251 253 255 256 257 259
314 303 289 277 266 257 252 251 247 243 242 240 239 238 239 242 243 243 244 245 244 244 245 247 248 248 249 249 249 250 249 250 254 259 263 253 239 232 231 234 237 239 239 235 226 219 218 221 225 226 227 228 230 233 233 231 228 226 229 236 240 241 239 239 240 240 239 237 238 239 240 241 244 246 246 245 244 245 248 249 249 251 253 255 258
328 317 304 288 273 261 254 251 249 246 244 243 242 240 239 239 240 240 241 242 243 243 243 246 248 248 249 249 249 249 249 250 251 255 259 255 241 230 225 229 236 238 236 235 231 225 221 222 226 228 229 229 230 232 233 232 230 230 235 241 244 244 242 240 241 242 241 240 240 241 241 241 244 246 246 246 246 247 250 252 251 249 249 249 252
332 326 316 301 285 272 262 256 252 250 248 247 245 243 241 239 239 239 239 240 241 242 242 243 246 248 249 249 249 249 249 249 249 250 254 254 243 230 222 224 233 237 236 235 233 229 227 227 228 229 231 232 231 231 232 233 233 234 237 242 245 244 241 241 242 243 242 242 242 242 241 241 244 246 248 248 249 250 252 255 254 251 249 247 248
335 332 324 311 296 281 270 263 257 252 250 248 246 244 243 241 241 241 240 240 241 242 243 242 244 246 248 249 249 250 250 249 248 248 250 252 245 232 224 225 230 232 233 235 235 232 230 229 230 230 231 232 232 232 233 234 235 236 238 241 242 239 238 242 243 242 241 243 242 240 238 239 242 246 248 250 252 254 257 259 257 252 250 250 252
336 333 327 320 309 294 280 268 260 253 249 247 246 245 245 245 245 245 244 243 242 243 244 243 243 245 248 249 249 250 250 249 248 246 246 248 247 237 227 227 230 229 228 231 235 236 233 231 231 231 231 233 233 232 233 235 236 236 237 236 234 233 237 242 241 239 241 243 240 235 234 238 243 247 249 252 255 257 260 261 257 252 252 256 258
338 334 328 322 315 305 294 282 271 262 256 253 251 250 251 251 252 252 250 248 247 247 246 244 243 244 246 249 249 250 250 250 248 245 243 245 249 244 234 230 230 230 230 231 231 234 236 233 232 231 231 233 234 233 233 234 232 230 229 228 229 234 238 238 237 239 243 243 238 234 235 239 244 247 249 252 254 256 258 258 256 255 258 261 263
342 338 333 327 319 310 299 289 280 273 266 262 259 257 256 257 257 257 257 255 253 252 251 249 246 244 245 248 249 249 250 250 248 244 241 241 246 249 244 237 233 231 232 234 232 230 233 232 231 231 229 230 232 233 234 234 230 227 226 228 232 236 237 235 236 241 245 243 241 239 239 241 242 245 248 250 252 254 255 257 258 259 262 264 266
344 342 338 334 328 319 307 295 284 276 270 266 262 260 260 259 259 259 260 259 258 256 255 254 250 246 245 246 248 249 249 249 248 243 239 238 242 248 250 246 240 235 233 235 234 232 231 228 227 229 229 229 229 230 232 234 234 232 233 235 237 238 237 237 239 243 245 245 244 243 243 243 242 243 246 248 251 254 257 259 261 263 264 267 269
343 342 339 337 334 331 323 311 297 284 274 267 263 260 259 258 258 259 260 260 259 258 257 256 253 248 244 244 245 247 247 247 246 241 237 236 238 246 252 251 246 241 237 237 237 235 234 231 227 225 227 229 230 229 230 233 234 234 235 236 237 237 239 241 241 243 247 248 246 244 244 244 243 243 245 248 252 256 260 262 264 265 266 268 270
338 337 336 337 338 340 340 334 323 309 292 277 267 261 257 256 255 255 257 258 258 258 258 257 255 250 245 243 244 245 246 245 243 238 234 233 236 244 254 256 253 247 242 240 240 238 237 236 232 228 228 230 232 232 232 233 235 236 237 237 237 238 241 242 241 243 247 250 250 247 244 244 245 245 246 248 252 257 260 263 264 266 267 268 269
332 332 334 337 341 347 351 351 349 342 326 303 281 266 255 251 250 249 250 253 255 256 257 257 256 251 247 244 244 245 245 243 239 233 228 227 232 242 253 258 258 254 247 241 240 239 239 239 236 232 230 231 233 235 235 236 237 239 240 241 241 240 240 240 239 242 246 248 250 251 248 245 245 246 247 249 253 257 260 262 264 265 267 268 269
331 332 334 339 343 351 359 0 1 2 356 341 314 278 250 240 238 236 235 242 249 254 257 260 259 253 248 247 246 245 242 238 233 227 222 222 227 238 249 255 258 257 252 245 240 239 239 239 239 236 233 231 233 236 238 238 239 241 242 244 243 241 240 239 240 243 246 247 249 252 251 247 245 246 248 249 252 256 259 260 262 264 266 267 267
332 333 334 340 343 350 2 6 3 5 7 4 356 338 278 232 218 208 212 230 246 253 260 266 266 260 252 249 247 241 234 229 224 220 218 219 224 233 243 250 254 256 253 248 243 240 239 240 240 240 239 237 236 238 239 239 239 240 242 243 245 244 243 243 245 246 247 247 249 251 252 249 246 247 249 251 253 255 256 257 259 261 263 264 265
335 335 333 338 343 348 360 7 7 6 7 7 10 15 16 345 237 209 219 239 256 268 273 273 270 266 259 251 243 232 223 218 216 214 215 218 224 231 238 244 249 251 250 247 243 240 238 238 239 241 242 241 239 239 241 242 241 241 241 241 243 245 246 246 246 246 247 247 248 249 250 249 246 247 249 250 251 253 254 256 257 258 259 261 261
340 342 338 335 339 345 354 3 10 13 13 10 10 15 19 16 5 339 286 275 277 279 276 271 268 268 265 250 231 219 213 210 209 210 212 216 223 230 235 240 243 245 245 243 242 240 237 236 235 237 239 239 239 239 241 243 244 244 243 242 241 241 242 243 243 243 244 244 245 246 246 245 244 244 245 247 249 251 253 255 256 256 256 257 258
348 351 349 341 335 339 348 356 5 16 20 19 16 15 17 15 8 4 3 347 324 305 293 296 296 276 247 232 218 209 204 202 202 204 208 214 220 225 229 232 235 238 239 239 238 239 238 237 235 234 234 235 235 236 238 241 244 245 246 246 244 242 241 241 240 240 240 240 241 242 243 243 244 245 247 248 250 252 254 255 257 257 257 257 258
353 357 0 359 348 335 340 350 357 8 19 24 24 21 19 17 9 5 9 6 356 341 323 323 326 245 198 194 200 201 197 194 195 197 202 209 216 221 224 225 226 229 233 235 234 235 236 238 238 236 235 234 233 234 235 237 240 242 243 244 245 245 244 244 243 243 243 244 245 246 248 250 251 253 254 254 254 254 255 256 257 258 259 260 260
353 359 5 9 7 358 346 347 355 4 12 20 22 22 23 25 24 19 8 354 345 337 324 318 312 280 199 172 174 184 188 188 187 190 196 204 214 220 223 224 225 225 228 232 234 234 234 236 238 239 239 239 238 238 238 238 240 241 242 243 244 245 247 248 249 251 253 255 256 258 259 259 260 261 261 261 261 260 260 260 261 261 262 263 263
350 358 3 10 13 12 4 354 352 360 8 14 16 16 19 25 31 33 29 18 7 353 338 329 322 312 286 164 158 165 177 184 181 179 184 192 202 211 217 220 223 226 228 231 234 237 238 238 239 241 242 243 244 245 247 248 250 251 252 253 253 253 254 255 257 259 261 262 263 264 265 266 266 266 266 266 266 265 264 264 264 264 265 265 265
343 350 358 7 13 15 14 9 359 349 351 360 5 8 11 17 23 30 35 35 33 31 28 27 22 20 29 52 92 149 180 195 195 193 192 192 194 201 208 214 219 223 227 231 235 240 243 244 246 247 248 249 250 251 252 254 256 258 260 260 260 261 260 260 261 262 263 264 264 265 266 266 266 266 267 267 266 266 265 264 264 264 264 265 265
333 339 348 359 7 12 16 16 10 357 342 332 334 345 358 7 13 20 28 33 35 36 39 44 45 47 51 57 62 69 78 101 206 220 228 232 233 232 230 230 229 229 231 234 237 240 243 246 248 249 251 252 253 253 253 254 254 255 256 257 257 258 258 258 259 259 260 260 261 261 261 262 262 262 263 264 264 265 265 265 265 265 265 265 266
322 327 333 344 356 4 10 15 16 11 360 344 324 315 320 333 350 6 17 22 26 31 35 39 43 46 48 51 53 57 61 63 65 68 105 228 243 248 249 248 246 243 241 240 242 243 245 247 249 251 252 253 254 254 254 255 255 254 254 255 255 255 256 256 257 258 258 258 259 259 260 260 260 261 261 262 263 263 264 265 265 266 267 268 268
310 314 319 328 339 350 358 5 11 15 13 8 355 332 314 307 309 316 333 357 11 20 25 26 27 30 33 35 38 40 42 46 50 51 50 51 253 243 247 248 248 246 244 242 241 242 243 244 246 248 249 251 252 253 254 255 255 256 256 256 257 257 257 258 258 259 259 259 260 260 261 261 262 263 263 263 264 265 265 266 267 268 269 270 271
298 302 307 313 320 330 341 349 356 4 10 13 13 6 349 328 311 303 297 298 309 328 352 2 2 360 2 360 358 354 347 335 319 303 285 271 260 252 247 248 247 247 246 245 243 242 241 241 242 244 245 246 248 249 250 252 253 254 255 255 256 257 258 259 260 260 261 261 262 262 263 263 264 265 265 266 267 267 268 268 269 269 270 271 272
285 290 295 300 304 309 319 330 337 345 354 0 6 11 10 2 350 340 326 316 305 292 280 274 276 283 293 298 299 301 296 291 286 281 277 272 269 267 264 263 261 259 258 256 253 250 248 246 245 245 245 246 247 248 250 252 253 255 256 257 258 259 260 261 262 262 262 263 264 264 264 265 265 266 266 267 267 268 268 268 269 269 269 270 270
274 278 282 287 291 294 298 306 315 323 332 340 346 354 3 5 3 359 354 351 346 331 305 286 275 271 270 270 271 272 272 272 273 275 277 279 279 281 280 279 278 276 273 270 267 263 261 259 257 257 256 257 258 259 259 260 261 262 262 262 262 262 262 263 263 263 263 263 264 264 265 265 266 267 267 268 268 268 268 269 269 269 269 269 269
265 268 272 275 279 281 284 288 293 300 307 315 322 329 338 345 349 350 352 352 346 336 330 327 318 303 287 277 271 266 263 263 264 266 270 273 274 275 277 278 278 277 275 275 274 274 274 273 273 272 273 273 273 272 271 270 269 267 267 266 265 264 264 265 266 266 266 266 267 267 268 268 268 269 269 269 270 270 270 271 271 271 271 271 271
259 262 264 266 269 271 274 276 279 282 287 293 298 305 312 319 324 329 333 334 329 326 327 327 321 314 306 296 288 283 279 277 278 278 276 275 273 271 268 267 268 268 267 266 267 269 272 273 274 274 275 274 273 272 271 271 271 271 271 271 271 271 271 272 273 273 274 274 274 275 275 275 275 275 274 274 274 274 274 274 274 275 275 276 276
255 257 258 259 261 263 265 268 271 273 276 279 284 288 293 298 302 307 310 312 311 312 315 316 312 308 304 300 296 293 291 291 292 289 284 281 279 277 273 269 265 264 264 264 264 265 266 268 269 270 270 270 270 271 272 274 275 276 277 278 279 279 279 279 280 280 280 280 280 280 280 280 280 280 279 279 278 278 277 277 277 277 278 278 279
253 254 255 256 257 258 259 261 265 268 271 272 275 279 283 286 289 292 294 296 296 297 299 301 302 301 300 300 298 297 296 295 293 287 281 278 276 275 275 274 271 269 269 269 270 270 270 271 272 272 274 275 277 279 281 282 283 284 285 285 286 286 286 286 286 286 285 285 285 284 284 284 283 283 282 282 281 281 280 280 280 279 279 279 279
249 251 253 254 254 255 256 257 259 263 267 270 272 275 278 281 283 284 285 286 288 289 289 289 291 292 292 292 292 292 293 293 292 290 286 283 279 275 274 274 274 275 275 275 275 276 276 277 279 282 284 285 286 287 287 287 288 288 289 289 289 289 289 289 289 288 288 287 287 286 286 285 285 284 284 283 283 283 282 282 282 282 282 281 281
249 248 250 252 253 253 254 255 256 258 261 265 270 273 276 278 280 281 282 282 283 284 284 284 284 285 285 286 286 286 287 287 288 288 288 287 285 283 281 281 281 282 282 282 282 282 283 284 286 287 288 289 289 289 289 289 289 289 289 289 289 289 289 288 288 287 287 287 286 286 285 284 284 283 282 282 282 282 282 282 281 282 282 281 282
251 248 248 249 250 252 252 253 255 256 259 262 266 269 273 275 276 278 279 280 281 281 282 282 281 281 281 282 283 283 283 283 282 281 281 280 280 281 281 282 282 282 281 282 282 283 284 285 286 286 287 287 287 288 287 287 287 286 286 286 286 285 285 285 284 284 283 283 282 282 281 281 281 281 280 280 280 280 281 281 281 281 281 281 281
251 250 249 248 249 250 251 251 253 254 257 259 262 266 269 272 273 275 277 278 278 278 278 278 278 278 278 279 280 280 281 282 282 281 279 278 278 279 279 280 280 280 280 280 280 280 281 282 282 282 283 283 283 283 283 283 283 283 283 283 283 282 282 282 282 281 281 280 280 280 279 279 279 279 280 280 280 281 281 281 281 281 281 281 281
251 251 250 249 249 248 248 249 250 252 254 257 260 263 266 268 270 273 275 275 276 275 274 274 274 274 274 275 277 279 281 282 283 283 282 281 280 279 279 279 279 280 280 281 281 281 282 282 282 282 282 282 282 282 282 282 282 282 282 283 283 283 283 283 282 282 281 281 281 281 281 281 281 282 282 282 283 283 283 283 283 282 282 282 282
250 249 249 250 249 248 248 247 248 249 252 255 257 260 263 266 269 272 274 275 275 274 272 271 270 270 271 272 274 276 278 279 280 281 281 281 280 280 280 280 280 280 280 280 280 281 281 281 281 281 281 281 281 281 282 282 282 282 282 283 284 284 284 283 283 282 281 281 282 282 282 283 284 284 285 285 285 285 285 285 284 284 284 283 283
251 249 247 247 248 247 248 247 247 248 251 253 256 260 263 266 269 272 273 274 274 273 272 271 271 271 271 272 273 274 275 276 277 278 278 279 279 279 279 279 279 280 280 280 280 280 281 281 281 281 281 281 281 281 281 281 281 281 282 283 283 283 282 282 282 282 282 282 282 282 282 283 284 285 286 286 286 286 286 286 286 286 286 285 285
254 250 247 245 245 245 246 247 248 249 251 253 257 260 264 267 270 271 270 269 269 269 270 271 272 273 273 274 275 276 276 277 278 279 279 279 279 279 279 280 281 282 284 284 285 285 285 284 284 283 282 281 281 280 280 280 281 282 283 282 282 281 281 281 281 281 281 281 281 281 281 282 283 284 284 285 285 285 285 285 286 286 286 286 286
256 253 249 246 245 244 245 246 248 250 253 256 258 262 264 266 266 266 265 265 266 269 272 274 276 276 277 277 277 278 278 278 278 278 279 279 280 280 281 282 284 285 287 288 288 288 288 288 288 287 286 285 284 283 283 283 284 285 285 285 284 284 284 284 283 283 282 282 282 282 283 283 284 284 285 285 285 285 286 286 287 287 288 288 288
257 255 251 248 245 244 244 246 247 249 252 256 259 261 262 261 261 261 263 266 269 272 276 279 280 281 281 281 279 278 277 277 279 280 281 282 283 284 284 285 285 286 286 287 287 287 287 287 287 287 287 287 288 287 287 287 287 287 287 287 287 287 287 287 287 286 286 285 285 285 286 286 287 287 288 288 288 288 288 289 289 289 289 289 289
253 253 252 249 247 246 245 245 246 248 251 253 255 256 257 257 258 260 263 267 272 276 280 283 284 284 283 283 281 280 280 280 282 284 286 287 287 288 289 288 287 286 286 285 284 284 284 284 283 283 283 284 285 285 286 286 287 287 287 287 287 287 287 287 288 288 288 288 288 288 289 289 289 289 289 289 289 289 289 289 289 289 289 289 289
252 252 252 251 250 248 247 247 247 249 251 253 254 255 257 259 261 263 266 270 275 280 284 287 288 286 285 283 282 282 282 281 282 284 286 288 289 290 290 290 288 287 287 286 285 284 284 283 283 282 282 282 282 282 283 284 285 285 286 286 286 286 286 285 285 285 286 286 287 287 287 287 287 287 287 287 287 288 288 289 289 289 289 290 290
254 253 252 251 250 248 248 250 252 254 255 256 257 258 260 262 264 266 269 273 277 281 285 288 289 288 286 285 283 283 283 283 283 285 287 289 290 291 290 290 290 289 289 288 287 286 286 286 286 286 285 284 283 282 282 282 282 283 283 283 283 283 283 282 282 282 282 282 282 283 283 284 284 285 286 287 287 288 289 289 289 290 290 290 290
256 255 252 251 250 249 250 252 255 258 261 263 264 264 264 264 265 267 269 273 277 280 284 287 288 287 286 284 283 283 283 283 284 285 286 287 287 287 288 289 290 291 290 289 289 288 288 288 288 288 287 286 285 284 284 283 282 282 282 282 282 282 282 281 281 281 281 281 281 282 282 283 284 286 287 288 289 289 289 290 290 290 290 290 290
Height
5729 5729 5729 5729 5730 5731 5731 5731 5732 5733 5733 5733 5733 5734 5734 5734 5735 5736 5736 5737 5737 5737 5738 5739 5740 5740 5741 5742 5744 5746 5747 5747 5746 5746 5749 5751 5753 5755 5757 5759 5761 5762 5764 5766 5769 5773 5776 5779 5781 5784 5788 5790 5792 5794 5796 5798 5800 5802 5804 5806 5808 5810 5812 5813 5813 5813 5814 5815 5817 5819 5820 5820 5821 5823 5824 5826 5827 5827 5827 5828 5829 5829 5829 5829 5830
5724 5723 5724 5724 5725 5726 5727 5727 5728 5729 5729 5730 5730 5731 5731 5731 5732 5733 5733 5733 5734 5734 5735 5736 5737 5738 5738 5739 5740 5742 5743 5743 5743 5743 5744 5746 5748 5751 5753 5755 5756 5758 5760 5762 5765 5768 5771 5774 5776 5779 5783 5786 5788 5790 5793 5795 5797 5798 5800 5802 5804 5807 5808 5809 5810 5810 5811 5812 5814 5816 5817 5818 5818 5820 5821 5822 5823 5824 5824 5825 5825 5826 5827 5828 5828
5719 5718 5718 5719 5719 5721 5722 5722 5724 5725 5725 5726 5726 5727 5728 5728 5729 5729 5730 5730 5731 5732 5732 5733 5734 5735 5736 5736 5737 5738 5739 5739 5740 5740 5740 5742 5744 5747 5749 5750 5752 5754 5756 5758 5761 5764 5767 5769 5772 5775 5778 5781 5784 5786 5789 5791 5792 5794 5796 5799 5801 5803 5804 5805 5807 5807 5808 5809 5811 5812 5814 5815 5816 5817 5818 5820 5820 5821 5821 5821 5821 5822 5823 5824 5825
5714 5714 5714 5714 5714 5715 5716 5717 5719 5720 5721 5722 5722 5723 5724 5725 5725 5726 5727 5728 5728 5729 5729 5730 5731 5732 5733 5733 5733 5734 5735 5736 5736 5736 5736 5738 5740 5743 5745 5746 5747 5750 5752 5755 5757 5759 5762 5765 5768 5771 5774 5777 5779 5782 5785 5787 5788 5790 5793 5795 5797 5798 5799 5801 5803 5804 5804 5806 5807 5809 5810 5812 5814 5815 5816 5816 5817 5818 5818 5818 5818 5819 5820 5821 5822
5710 5710 5710 5709 5710 5711 5712 5713 5714 5716 5717 5718 5718 5719 5720 5721 5722 5723 5724 5725 5725 5726 5727 5728 5729 5729 5730 5730 5730 5731 5732 5732 5732 5732 5733 5734 5736 5739 5740 5742 5744 5746 5748 5750 5753 5755 5758 5760 5763 5766 5769 5772 5775 5777 5780 5782 5784 5786 5788 5790 5793 5795 5796 5798 5800 5801 5802 5803 5804 5806 5807 5809 5811 5812 5813 5813 5813 5814 5814 5815 5815 5816 5816 5817 5818
5707 5707 5706 5706 5706 5707 5708 5709 5710 5712 5713 5713 5714 5715 5716 5717 5719 5720 5721 5722 5722 5723 5724 5724 5725 5726 5726 5727 5727 5728 5728 5729 5729 5729 5730 5731 5732 5734 5736 5738 5740 5743 5745 5746 5748 5751 5754 5756 5758 5761 5765 5768 5771 5773 5775 5777 5780 5781 5783 5786 5789 5792 5794 5795 5797 5798 5799 5800 5800 5802 5804 5806 5807 5808 5809 5810 5810 5810 5811 5811 5812 5813 5813 5814 5815
5705 5704 5703 5703 5703 5704 5705 5706 5707 5708 5709 5710 5711 5712 5713 5714 5715 5716 5717 5718 5719 5720 5720 5721 5722 5723 5723 5724 5724 5725 5725 5725 5726 5726 5727 5728 5729 5730 5732 5734 5736 5739 5742 5743 5745 5747 5750 5752 5755 5758 5761 5764 5767 5769 5771 5773 5775 5777 5779 5782 5785 5788 5790 5791 5793 5794 5795 5796 5797 5798 5800 5802 5803 5804 5804 5806 5807 5807 5808 5809 5809 5810 5810 5811 5812
5703 5702 5701 5701 5701 5701 5702 5703 5704 5705 5706 5706 5707 5708 5709 5710 5711 5712 5713 5714 5715 5716 5717 5718 5719 5719 5720 5721 5721 5722 5722 5722 5723 5723 5724 5725 5726 5727 5729 5731 5733 5735 5738 5740 5741 5743 5746 5748 5751 5754 5757 5760 5763 5765 5768 5769 5771 5773 5776 5778 5781 5783 5785 5787 5788 5790 5791 5793 5793 5794 5795 5797 5799 5800 5800 5802 5803 5804 5805 5807 5807 5807 5808 5809 5809
5703 5702 5701 5700 5700 5700 5701 5701 5702 5703 5703 5704 5704 5705 5706 5707 5708 5709 5710 5711 5712 5713 5714 5715 5715 5716 5717 5718 5718 5719 5719 5719 5720 5721 5721 5722 5723 5724 5726 5729 5730 5732 5734 5737 5738 5740 5743 5745 5747 5750 5752 5755 5758 5760 5763 5765 5767 5770 5772 5774 5776 5778 5779 5781 5783 5785 5787 5789 5790 5791 5792 5793 5795 5796 5797 5798 5799 5800 5801 5803 5803 5804 5805 5806 5807
5702 5701 5700 5700 5699 5699 5699 5699 5700 5701 5701 5701 5702 5702 5703 5704 5705 5706 5707 5708 5709 5710 5711 5712 5712 5713 5714 5714 5715 5716 5716 5716 5717 5718 5719 5719 5720 5722 5724 5726 5727 5728 5730 5733 5735 5737 5739 5741 5744 5746 5748 5751 5753 5755 5757 5760 5763 5765 5767 5769 5770 5772 5774 5776 5779 5780 5782 5784 5786 5787 5788 5789 5790 5791 5792 5793 5794 5796 5797 5798 5799 5800 5801 5802 5803
5702 5701 5700 5699 5698 5698 5698 5698 5698 5699 5699 5699 5700 5700 5700 5701 5702 5702 5703 5705 5706 5706 5707 5708 5709 5710 5710 5711 5712 5712 5713 5713 5714 5715 5716 5717 5718 5719 5721 5722 5724 5725 5727 5729 5731 5733 5735 5737 5739 5741 5744 5746 5748 5750 5752 5755 5757 5760 5762 5764 5765 5767 5770 5772 5774 5775 5777 5778 5780 5782 5783 5785 5785 5786 5788 5788 5789 5791 5793 5794 5795 5796 5796 5797 5798
5701 5700 5699 5698 5698 5697 5697 5696 5696 5697 5697 5697 5697 5698 5698 5698 5699 5700 5701 5701 5702 5703 5704 5705 5706 5707 5707 5708 5708 5709 5709 5710 5711 5712 5713 5714 5714 5716 5717 5719 5721 5722 5724 5726 5728 5729 5731 5733 5735 5737 5739 5741 5744 5746 5748 5751 5753 5754 5756 5759 5761 5763 5765 5767 5769 5771 5772 5773 5774 5776 5778 5780 5781 5782 5784 5785 5785 5787 5787 5788 5789 5790 5791 5792 5793
5701 5700 5698 5697 5696 5696 5695 5695 5695 5695 5695 5695 5695 5696 5696 5696 5696 5697 5698 5699 5700 5700 5701 5702 5703 5703 5704 5704 5705 5706 5706 5707 5707 5708 5709 5711 5711 5712 5714 5716 5717 5719 5721 5723 5725 5726 5727 5729 5731 5733 5736 5738 5740 5742 5745 5746 5748 5750 5751 5754 5755 5757 5760 5762 5765 5767 5768 5769 5770 5771 5774 5776 5777 5778 5779 5780 5780 5781 5781 5782 5783 5785 5786 5787 5788
5700 5699 5698 5696 5695 5694 5693 5693 5693 5693 5693 5693 5693 5693 5694 5694 5694 5694 5695 5696 5697 5697 5698 5699 5700 5700 5701 5701 5702 5702 5703 5703 5704 5705 5706 5707 5708 5709 5710 5712 5714 5716 5718 5720 5722 5723 5724 5725 5727 5729 5731 5734 5736 5738 5741 5742 5744 5746 5747 5749 5751 5753 5756 5758 5760 5762 5763 5764 5765 5767 5769 5770 5772 5772 5773 5774 5775 5775 5776 5777 5779 5780 5781 5782 5783
5700 5699 5697 5696 5694 5693 5692 5691 5691 5690 5690 5690 5691 5691 5691 5691 5692 5692 5692 5693 5693 5694 5695 5695 5696 5697 5697 5698 5698 5699 5700 5700 5701 5701 5702 5704 5705 5706 5707 5708 5710 5712 5714 5716 5717 5718 5720 5721 5722 5724 5726 5729 5731 5734 5736 5738 5740 5742 5744 5745 5747 5749 5750 5753 5754 5756 5757 5758 5760 5761 5763 5765 5766 5767 5767 5768 5770 5771 5772 5773 5774 5775 5776 5776 5777
5700 5698 5697 5695 5694 5692 5691 5689 5689 5688 5688 5688 5688 5688 5688 5689 5689 5689 5689 5690 5690 5691 5691 5692 5692 5693 5694 5695 5695 5696 5696 5697 5697 5698 5699 5701 5702 5704 5704 5705 5706 5708 5709 5711 5712 5714 5715 5716 5717 5719 5722 5723 5726 5729 5731 5733 5735 5737 5738 5740 5742 5743 5745 5747 5749 5750 5751 5753 5754 5756 5758 5760 5761 5762 5762 5763 5764 5765 5766 5767 5768 5769 5770 5771 5772
5699 5698 5696 5695 5693 5691 5690 5688 5687 5686 5685 5685 5685 5685 5686 5686 5686 5687 5687 5687 5688 5688 5688 5688 5689 5690 5691 5692 5692 5693 5693 5694 5694 5695 5696 5698 5700 5701 5702 5702 5703 5704 5705 5706 5708 5710 5711 5712 5713 5715 5718 5719 5722 5724 5726 5728 5730 5731 5732 5734 5736 5738 5740 5742 5743 5745 5747 5748 5750 5752 5753 5754 5755 5756 5757 5758 5759 5759 5760 5761 5762 5763 5764 5765 5766
5698 5697 5695 5694 5692 5691 5689 5688 5686 5685 5684 5684 5683 5683 5683 5684 5684 5685 5685 5685 5685 5685 5686 5686 5686 5687 5687 5688 5689 5689 5690 5690 5691 5692 5694 5696 5698 5699 5699 5699 5699 5700 5701 5702 5703 5705 5706 5708 5710 5712 5714 5716 5718 5720 5721 5723 5724 5726 5727 5729 5731 5733 5735 5737 5738 5740 5742 5743 5745 5746 5748 5749 5749 5750 5751 5752 5753 5754 5754 5755 5756 5757 5758 5759 5760
5697 5696 5694 5693 5691 5690 5689 5687 5686 5685 5684 5683 5682 5682 5682 5682 5683 5683 5684 5684 5683 5684 5684 5684 5683 5684 5685 5685 5685 5686 5686 5687 5688 5689 5691 5693 5696 5697 5696 5696 5696 5697 5697 5698 5699 5700 5702 5704 5706 5708 5710 5712 5714 5716 5717 5718 5719 5721 5722 5724 5725 5727 5730 5732 5733 5735 5736 5738 5739 5741 5742 5743 5744 5744 5745 5746 5747 5748 5748 5749 5750 5751 5751 5752 5753
5696 5695 5693 5692 5691 5689 5688 5687 5686 5685 5684 5683 5682 5682 5682 5682 5682 5682 5683 5682 5682 5682 5682 5682 5681 5682 5682 5682 5682 5683 5684 5684 5686 5687 5689 5691 5693 5694 5694 5694 5694 5694 5694 5695 5695 5697 5698 5700 5702 5704 5706 5708 5711 5712 5713 5714 5715 5716 5717 5719 5720 5722 5724 5726 5727 5728 5730 5731 5733 5734 5736 5737 5738 5738 5739 5740 5741 5742 5742 5743 5744 5744 5744 5745 5745
5695 5694 5692 5691 5690 5689 5688 5687 5686 5685 5684 5683 5682 5682 5682 5682 5682 5682 5682 5681 5681 5681 5681 5680 5680 5680 5680 5680 5680 5681 5682 5683 5684 5686 5687 5689 5691 5692 5692 5692 5692 5693 5693 5693 5693 5694 5695 5696 5698 5700 5702 5704 5706 5707 5708 5709 5710 5711 5713 5714 5716 5717 5719 5720 5721 5722 5724 5725 5727 5728 5729 5730 5732 5732 5733 5733 5734 5735 5736 5736 5737 5738 5738 5738 5738
5694 5692 5691 5690 5689 5688 5687 5687 5686 5685 5684 5683 5682 5682 5681 5681 5681 5681 5681 5681 5680 5680 5680 5679 5679 5679 5679 5679 5679 5679 5680 5681 5683 5684 5686 5687 5688 5689 5690 5691 5691 5691 5691 5691 5691 5692 5693 5694 5695 5697 5698 5699 5701 5703 5704 5705 5706 5707 5709 5710 5711 5713 5714 5715 5716 5717 5718 5719 5721 5722 5723 5724 5725 5725 5725 5726 5727 5728 5729 5730 5730 5731 5731 5731 5732
5693 5692 5690 5689 5688 5688 5687 5686 5686 5685 5684 5683 5682 5682 5681 5681 5681 5680 5680 5680 5680 5680 5679 5679 5679 5679 5678 5678 5678 5679 5679 5681 5682 5683 5684 5685 5686 5687 5688 5689 5689 5689 5689 5689 5690 5690 5691 5692 5693 5694 5695 5696 5697 5698 5700 5701 5702 5703 5704 5706 5707 5708 5709 5710 5710 5711 5712 5713 5714 5716 5717 5717 5718 5719 5719 5720 5721 5722 5723 5723 5724 5724 5724 5725 5726
5693 5691 5690 5688 5688 5687 5687 5686 5685 5685 5684 5683 5682 5682 5681 5681 5680 5680 5680 5679 5679 5679 5679 5679 5679 5679 5678 5678 5678 5678 5679 5680 5680 5681 5682 5683 5684 5685 5686 5687 5687 5687 5687 5688 5688 5689 5689 5690 5691 5691 5692 5693 5694 5695 5696 5697 5698 5699 5700 5701 5703 5704 5705 5705 5706 5707 5707 5708 5709 5710 5711 5712 5713 5713 5714 5715 5716 5717 5718 5718 5718 5718 5718 5719 5720
5693 5691 5690 5688 5687 5686 5686 5685 5685 5684 5683 5683 5682 5682 5681 5681 5680 5680 5679 5679 5679 5679 5679 5679 5679 5678 5678 5678 5678 5678 5679 5679 5680 5681 5681 5682 5683 5684 5685 5685 5686 5686 5686 5687 5687 5688 5688 5688 5689 5690 5690 5691 5691 5692 5693 5694 5695 5696 5697 5698 5699 5700 5700 5701 5702 5703 5703 5704 5705 5706 5706 5707 5708 5709 5709 5710 5711 5712 5713 5713 5713 5713 5713 5713 5714
5692 5691 5690 5688 5687 5686 5685 5685 5684 5684 5683 5683 5682 5682 5681 5681 5680 5680 5679 5679 5679 5678 5678 5678 5678 5678 5678 5678 5678 5679 5679 5679 5680 5680 5681 5682 5682 5683 5684 5684 5685 5685 5686 5686 5686 5686 5687 5687 5688 5688 5688 5689 5690 5690 5691 5691 5692 5693 5694 5694 5695 5696 5697 5698 5699 5699 5700 5701 5702 5702 5703 5703 5704 5704 5705 5706 5706 5707 5707 5708 5708 5707 5707 5708 5708
5692 5691 5690 5688 5687 5686 5685 5684 5684 5683 5683 5682 5682 5682 5681 5681 5681 5680 5680 5679 5679 5678 5678 5678 5678 5678 5678 5678 5678 5679 5679 5679 5680 5680 5681 5681 5682 5683 5683 5684 5684 5685 5685 5685 5685 5685 5686 5686 5686 5687 5687 5688 5688 5689 5689 5690 5690 5691 5692 5692 5693 5694 5695 5695 5696 5697 5698 5698 5699 5699 5699 5700 5700 5700 5701 5701 5702 5702 5702 5703 5702 5702 5702 5702 5702
5691 5690 5689 5688 5687 5686 5685 5684 5683 5683 5682 5682 5682 5681 5681 5681 5681 5680 5680 5680 5679 5679 5678 5678 5678 5678 5678 5678 5678 5678 5678 5679 5679 5680 5680 5681 5681 5682 5682 5683 5684 5684 5685 5685 5685 5685 5685 5685 5686 5686 5686 5687 5687 5687 5688 5689 5689 5690 5690 5691 5691 5692 5692 5693 5694 5694 5695 5695 5696 5696 5696 5697 5697 5697 5697 5697 5697 5697 5697 5697 5697 5697 5696 5696 5696
5690 5690 5689 5688 5687 5686 5685 5684 5683 5683 5682 5682 5681 5681 5681 5680 5680 5680 5680 5680 5679 5679 5679 5679 5678 5678 5678 5678 5678 5678 5678 5679 5679 5679 5679 5680 5680 5681 5681 5682 5682 5683 5683 5684 5684 5684 5685 5685 5685 5685 5686 5686 5686 5686 5687 5687 5688 5688 5689 5689 5689 5690 5690 5691 5691 5691 5692 5692 5692 5692 5693 5693 5693 5693 5693 5693 5693 5693 5693 5692 5692 5691 5691 5690 5690
5689 5689 5688 5687 5686 5686 5685 5684 5683 5683 5682 5681 5681 5681 5680 5680 5680 5680 5680 5679 5679 5679 5679 5679 5679 5678 5678 5678 5678 5678 5678 5679 5679 5679 5679 5679 5680 5680 5680 5681 5681 5682 5682 5683 5683 5683 5684 5684 5684 5684 5685 5685 5685 5685 5685 5686 5686 5686 5687 5687 5687 5687 5687 5688 5688 5688 5688 5689 5689 5689 5689 5689 5689 5688 5688 5688 5688 5688 5688 5687 5687 5686 5686 5685 5684
5688 5687 5687 5686 5686 5685 5684 5684 5683 5682 5682 5681 5681 5680 5680 5680 5680 5679 5679 5679 5679 5679 5679 5679 5679 5678 5678 5678 5678 5678 5679 5679 5679 5679 5679 5679 5679 5680 5680 5680 5680 5681 5681 5681 5682 5682 5682 5682 5683 5683 5683 5683 5683 5684 5684 5684 5684 5684 5685 5685 5685 5685 5685 5685 5685 5685 5686 5685 5685 5685 5685 5685 5685 5685 5684 5684 5684 5683 5683 5683 5682 5682 5681 5680 5679
5686 5686 5686 5685 5685 5684 5684 5683 5683 5682 5682 5681 5681 5680 5680 5680 5679 5679 5679 5679 5679 5678 5678 5678 5678 5678 5678 5678 5678 5678 5678 5678 5678 5678 5678 5678 5679 5679 5679 5679 5679 5679 5680 5680 5680 5681 5681 5681 5681 5681 5681 5681 5682 5682 5682 5682 5683 5683 5683 5683 5683 5683 5683 5683 5683 5683 5683 5682 5682 5682 5682 5681 5681 5681 5680 5680 5679 5679 5678 5678 5677 5677 5676 5675 5675
5684 5684 5684 5684 5684 5683 5683 5683 5682 5682 5681 5681 5680 5680 5679 5679 5679 5679 5679 5678 5678 5678 5677 5677 5677 5677 5677 5677 5677 5677 5677 5677 5677 5677 5677 5677 5678 5678 5678 5678 5678 5678 5678 5679 5679 5679 5679 5679 5680 5680 5680 5680 5680 5681 5681 5681 5681 5681 5681 5681 5681 5681 5680 5680 5680 5679 5679 5679 5678 5678 5678 5677 5677 5676 5676 5675 5675 5674 5673 5673 5672 5671 5671 5670 5669
5682 5682 5683 5683 5682 5682 5682 5681 5681 5681 5680 5680 5680 5679 5679 5679 5678 5678 5678 5678 5677 5677 5677 5677 5677 5677 5676 5676 5676 5676 5676 5676 5676 5676 5676 5676 5677 5677 5677 5677 5677 5677 5677 5677 5677 5677 5678 5678 5678 5678 5678 5679 5679 5679 5679 5679 5679 5679 5678 5678 5678 5677 5677 5676 5676 5675 5675 5674 5674 5673 5673 5672 5672 5671 5671 5670 5670 5669 5668 5668 5667 5666 5665 5664 5663
5680 5680 5680 5680 5680 5680 5680 5680 5680 5680 5679 5679 5679 5679 5678 5678 5678 5677 5677 5677 5677 5676 5676 5676 5676 5676 5675 5675 5675 5675 5675 5675 5675 5675 5675 5675 5675 5675 5675 5675 5675 5675 5675 5675 5676 5676 5676 5676 5676 5676 5676 5676 5676 5676 5676 5675 5675 5675 5674 5674 5674 5674 5673 5672 5672 5671 5671 5670 5669 5669 5668 5668 5667 5667 5666 5665 5665 5664 5663 5663 5662 5661 5660 5659 5658
5677 5678 5678 5678 5678 5678 5678 5678 5678 5678 5678 5678 5678 5678 5677 5677 5677 5676 5676 5676 5675 5675 5675 5675 5675 5675 5675 5674 5674 5674 5674 5674 5675 5675 5674 5674 5674 5674 5674 5674 5674 5674 5674 5674 5674 5674 5673 5673 5673 5673 5673 5673 5673 5673 5672 5672 5672 5671 5671 5670 5670 5669 5669 5668 5668 5667 5666 5666 5665 5665 5664 5663 5663 5662 5661 5660 5660 5659 5658 5657 5656 5655 5654 5653 5652
5675 5675 5675 5676 5676 5676 5676 5676 5676 5676 5676 5676 5676 5676 5676 5676 5676 5675 5675 5675 5674 5674 5674 5674 5674 5673 5673 5673 5673 5673 5672 5673 5673 5673 5673 5673 5673 5672 5672 5672 5672 5672 5672 5672 5672 5671 5671 5671 5670 5670 5670 5670 5670 5670 5670 5669 5669 5668 5667 5667 5666 5665 5665 5664 5663 5663 5662 5661 5661 5660 5659 5658 5657 5656 5655 5655 5654 5653 5652 5651 5650 5649 5648 5647 5646
5672 5672 5673 5673 5673 5674 5674 5674 5674 5674 5674 5674 5674 5674 5674 5674 5674 5674 5674 5673 5673 5673 5673 5673 5672 5672 5672 5671 5671 5671 5671 5671 5671 5671 5671 5671 5671 5671 5670 5670 5670 5670 5670 5670 5669 5669 5669 5668 5668 5668 5668 5668 5667 5667 5667 5666 5666 5665 5664 5663 5662 5661 5660 5660 5659 5658 5657 5656 5656 5655 5654 5653 5652 5651 5650 5649 5648 5647 5646 5645 5644 5642 5641 5640 5639
5669 5669 5670 5670 5671 5671 5671 5671 5672 5672 5672 5672 5672 5672 5672 5672 5672 5672 5672 5671 5671 5671 5671 5670 5670 5670 5670 5669 5669 5669 5669 5669 5669 5669 5669 5669 5668 5668 5668 5668 5668 5668 5667 5667 5666 5666 5666 5666 5665 5665 5665 5664 5664 5663 5663 5662 5661 5660 5660 5659 5658 5657 5656 5655 5654 5653 5652 5651 5651 5649 5648 5647 5646 5645 5644 5643 5642 5641 5640 5639 5638 5636 5635 5634 5633
5665 5666 5666 5667 5667 5668 5668 5669 5669 5669 5669 5669 5670 5670 5670 5670 5670 5670 5669 5669 5669 5669 5668 5668 5668 5668 5667 5667 5667 5667 5667 5667 5667 5667 5667 5666 5666 5665 5665 5665 5665 5665 5664 5664 5663 5663 5663 5662 5662 5662 5661 5661 5660 5660 5659 5658 5657 5656 5655 5654 5653 5652 5651 5650 5649 5648 5647 5646 5645 5644 5643 5642 5640 5639 5638 5637 5636 5635 5634 5633 5631 5630 5629 5627 5626
5661 5662 5663 5663 5664 5664 5665 5665 5666 5666 5666 5667 5667 5667 5667 5667 5667 5667 5667 5667 5666 5666 5666 5665 5665 5665 5665 5664 5664 5664 5663 5663 5664 5664 5664 5663 5663 5663 5662 5662 5662 5661 5661 5661 5660 5660 5659 5659 5658 5658 5658 5657 5656 5656 5655 5654 5653 5652 5651 5650 5649 5648 5647 5646 5644 5643 5642 5641 5639 5638 5637 5636 5635 5633 5632 5631 5630 5629 5627 5626 5625 5623 5622 5620 5619
5658 5658 5659 5659 5660 5661 5661 5662 5662 5663 5663 5663 5664 5664 5664 5664 5664 5664 5664 5664 5664 5664 5663 5663 5662 5662 5662 5661 5661 5661 5660 5660 5660 5660 5660 5660 5659 5659 5659 5658 5658 5658 5657 5657 5656 5655 5655 5654 5654 5653 5653 5652 5651 5651 5649 5648 5647 5646 5645 5644 5643 5642 5641 5640 5639 5637 5636 5635 5633 5632 5630 5629 5628 5627 5625 5624 5623 5621 5620 5619 5617 5616 5614 5612 5611
5654 5655 5655 5655 5656 5657 5657 5658 5659 5659 5659 5660 5660 5660 5660 5660 5661 5661 5661 5660 5660 5660 5660 5659 5659 5659 5659 5659 5658 5658 5657 5657 5656 5656 5656 5656 5656 5656 5655 5655 5654 5654 5653 5653 5652 5652 5651 5650 5649 5648 5648 5647 5646 5645 5644 5642 5641 5640 5639 5639 5637 5636 5635 5634 5632 5631 5630 5628 5627 5626 5624 5622 5621 5619 5618 5617 5615 5614 5612 5611 5609 5608 5606 5605 5603
5650 5651 5651 5652 5652 5653 5654 5654 5655 5655 5656 5656 5656 5656 5657 5657 5657 5657 5657 5657 5656 5656 5656 5656 5656 5656 5655 5655 5655 5655 5654 5653 5653 5652 5652 5652 5652 5652 5651 5651 5650 5650 5649 5649 5648 5647 5646 5645 5644 5643 5643 5642 5641 5640 5638 5636 5635 5634 5633 5633 5631 5630 5628 5627 5625 5624 5623 5622 5620 5619 5617 5616 5614 5612 5611 5609 5607 5606 5604 5603 5601 5600 5598 5597 5595
5646 5647 5648 5648 5649 5650 5650 5651 5651 5652 5652 5652 5653 5653 5653 5653 5653 5653 5653 5653 5653 5653 5653 5652 5652 5652 5652 5652 5651 5651 5650 5650 5649 5648 5648 5648 5648 5648 5647 5647 5646 5645 5644 5644 5643 5642 5641 5639 5638 5638 5637 5636 5635 5634 5632 5630 5628 5627 5627 5626 5625 5623 5621 5620 5619 5617 5616 5615 5613 5612 5610 5609 5607 5606 5604 5602 5600 5598 5597 5595 5593 5592 5590 5589 5587
5642 5643 5644 5645 5645 5646 5646 5647 5647 5648 5649 5649 5649 5649 5649 5649 5649 5650 5649 5649 5649 5649 5649 5649 5649 5648 5648 5648 5648 5647 5647 5646 5645 5645 5644 5644 5644 5643 5643 5643 5642 5641 5640 5639 5637 5636 5635 5633 5632 5630 5629 5628 5628 5627 5625 5623 5621 5620 5619 5617 5616 5615 5614 5612 5611 5610 5608 5607 5605 5604 5602 5601 5599 5598 5596 5594 5592 5591 5589 5587 5585 5584 5582 5580 5578
5639 5639 5640 5641 5642 5642 5643 5643 5644 5644 5645 5645 5646 5646 5646 5646 5646 5646 5646 5646 5646 5646 5646 5645 5645 5645 5644 5644 5644 5644 5643 5642 5641 5641 5640 5640 5639 5639 5639 5638 5637 5636 5635 5634 5632 5631 5629 5628 5626 5624 5622 5620 5619 5618 5617 5615 5614 5612 5610 5609 5607 5606 5605 5604 5602 5601 5599 5598 5597 5595 5594 5592 5590 5589 5587 5586 5584 5582 5581 5579 5577 5575 5573 5571 5569
5636 5636 5636 5637 5638 5639 5639 5640 5640 5641 5641 5642 5642 5642 5642 5642 5643 5643 5643 5642 5642 5642 5642 5642 5641 5641 5641 5640 5640 5639 5639 5638 5637 5636 5636 5635 5635 5634 5633 5633 5632 5631 5630 5629 5627 5626 5625 5624 5622 5619 5617 5615 5613 5612 5610 5608 5606 5604 5603 5601 5600 5598 5597 5595 5594 5592 5590 5589 5587 5586 5584 5583 5581 5580 5578 5577 5575 5574 5572 5570 5568 5566 5564 5562 5560
5633 5633 5633 5634 5635 5636 5636 5637 5637 5637 5638 5638 5638 5639 5639 5639 5639 5639 5639 5639 5638 5638 5638 5638 5637 5637 5636 5636 5635 5635 5634 5634 5633 5632 5631 5631 5630 5629 5628 5628 5627 5625 5624 5623 5622 5620 5619 5618 5616 5614 5612 5610 5608 5606 5604 5602 5600 5598 5596 5594 5593 5591 5589 5588 5586 5584 5583 5581 5580 5578 5576 5575 5573 5572 5570 5568 5567 5565 5563 5561 5559 5557 5555 5553 5551
5629 5630 5630 5631 5632 5632 5632 5633 5633 5634 5634 5635 5635 5635 5635 5635 5635 5635 5635 5634 5634 5633 5633 5633 5632 5632 5631 5631 5630 5630 5629 5629 5628 5627 5627 5626 5625 5624 5623 5621 5620 5619 5618 5616 5615 5613 5612 5611 5609 5607 5606 5604 5602 5600 5598 5596 5594 5593 5591 5589 5587 5585 5583 5581 5579 5578 5576 5574 5573 5571 5569 5567 5566 5564 5562 5560 5558 5556 5554 5552 5550 5547 5545 5543 5540
5626 5627 5627 5628 5628 5629 5629 5630 5630 5630 5630 5630 5631 5631 5631 5631 5631 5631 5631 5630 5630 5629 5628 5628 5627 5627 5626 5626 5625 5624 5624 5623 5623 5622 5622 5621 5619 5618 5616 5615 5614 5612 5611 5609 5607 5605 5604 5602 5601 5599 5597 5596 5594 5593 5591 5590 5588 5586 5584 5582 5580 5578 5576 5574 5573 5571 5569 5567 5565 5563 5562 5560 5557 5555 5553 5551 5548 5546 5544 5541 5539 5536 5534 5531 5529